Home   Weather   Rarotonga   Past weeks

Flag for Cook Islands Past Weather in Rarotonga, Cook Islands — Yesterday and Last 2 Weeks

Now
81 °F

Partly sunny.


Feels Like: 87 °F
Forecast: 77 / 84 °F
Wind: 5 mph from West

Location: Rarotonga

Current Time: Sep 27, 2016 at 10:43:13 AM

Latest Report: Sep 27, 2016 at 10:00 AM


Visibility: N/A

Pressure: 29.98 "Hg

Humidity: 89%

Dew Point: 77 °F

Location of RarotongaLocation

Past Weather in Rarotonga — Graph

°F

Rarotonga Temperature Yesterday

Maximum temperature yesterday: 82 °F (at 11:00 AM)
Minimum temperature yesterday: 75 °F (at 3:00 AM)
Average temperature yesterday: 79 °F

High & Low Weather Summary for the Past Weeks

 TemperatureHumidityPressure
High82 °F (Sep 12, 11:00 AM)100% (Sep 15, 8:20 AM)30.12 "Hg (Sep 15, 8:20 AM)
Low68 °F (Sep 24, 5:00 AM)62% (Sep 13, 1:00 PM)29.80 "Hg (Sep 22, 3:00 AM)
Average77 °F85%29.97 "Hg
* Reported Sep 12 9:00 AM — Sep 27 9:00 AM, Rarotonga, Weather by CustomWeather, © 2016

Note: Actual official high and low records may vary slightly from our data, if they occured in-between our weather recording intervals... More about our weather records

Advertising

Rarotonga Weather History for the Previous 24 Hours

Scroll right to see more
 ConditionsComfort  
Time TempWeatherWind HumidityBarometerVisibility
9:00 AM
Tue, Sep 27
81 °FBroken clouds.5 mph89%29.98 "HgN/A
8:00 AM79 °FBroken clouds.10 mph94%29.95 "HgN/A
7:00 AM77 °FPartly cloudy.12 mph100%29.92 "HgN/A
6:00 AM75 °FDrizzle. Mostly cloudy.15 mph94%29.92 "HgN/A
5:00 AM75 °FRain showers. Mostly cloudy.6 mph94%29.89 "HgN/A
4:00 AM79 °FPartly cloudy.12 mph94%29.89 "HgN/A
3:00 AM79 °FPartly cloudy.13 mph89%29.89 "HgN/A
2:00 AM79 °FSprinkles. Partly cloudy.7 mph89%29.89 "HgN/A
1:00 AM77 °FPassing clouds.12 mph94%29.92 "HgN/A
12:00 AM77 °FPassing clouds.14 mph89%29.92 "HgN/A
11:00 PM
Mon, Sep 26
77 °FPassing clouds.15 mph89%29.95 "HgN/A
10:00 PM77 °FPassing clouds.15 mph89%29.95 "HgN/A
9:00 PM77 °FPassing clouds.12 mph94%29.92 "HgN/A
8:00 PM79 °FPassing clouds.12 mph89%29.92 "HgN/A
7:00 PM79 °FPartly sunny.17 mph89%29.92 "HgN/A
6:00 PM79 °FPartly sunny.15 mph94%29.92 "HgN/A
5:00 PM81 °FScattered clouds.9 mph84%29.89 "HgN/A
4:00 PM82 °FScattered clouds.14 mph79%29.89 "HgN/A
3:00 PM82 °FBroken clouds.10 mph79%29.92 "HgN/A
2:00 PM82 °FPassing clouds.9 mph79%29.98 "HgN/A
1:00 PM82 °FPassing clouds.9 mph79%29.98 "HgN/A
12:00 PM82 °FScattered clouds.8 mph79%30.01 "HgN/A
11:00 AM82 °FScattered clouds.9 mph74%30.01 "HgN/A
10:00 AM81 °FScattered clouds.9 mph79%30.01 "HgN/A
Weather by CustomWeather, © 2016

See weather overviewHow to use our weather pages